This demonstration page uses our WeatherBlox Daily Observations layout. Learn more.

Left ArrowRight Arrow

40.92945, -100.16068

Hourly Observations for February 7, 2018

Temp ( °F °C ) Dew Point ( °F °C ) Humidity (%) Winds ( mph kmh ) Pressure ( in mb ) Visibility ( mi km ) Precip ( " mm )
12:15 am 00:15 Partly Cloudy N/A N/A N/A Calm N/A 10 16.0934 0 0
12:35 am 00:35 Partly Cloudy N/A N/A N/A WNW 7 11 N/A 10 16.0934 0 0
12:55 am 00:55 Mostly Cloudy N/A N/A N/A NW 5 7 N/A 10 16.0934 0 0
1:15 am 01:15 Mostly Cloudy N/A N/A N/A WNW 9 15 N/A 10 16.0934 0 0
1:35 am 01:35 Cloudy N/A N/A N/A WNW 8 13 N/A 10 16.0934 0 0
1:55 am 01:55 Cloudy N/A N/A N/A WNW 10 17 N/A 10 16.0934 0 0
2:15 am 02:15 Cloudy N/A N/A N/A NW 9 15 N/A 10 16.0934 0 0
2:35 am 02:35 Cloudy N/A N/A N/A NW 9 15 N/A 10 16.0934 0 0
2:55 am 02:55 Cloudy N/A N/A N/A NW 9 15 N/A 10 16.0934 0 0
3:15 am 03:15 Cloudy N/A N/A N/A NNW 9 15 N/A 10 16.0934 0 0
3:35 am 03:35 Cloudy N/A N/A N/A N 12 19 N/A 10 16.0934 0 0
3:55 am 03:55 Cloudy N/A N/A N/A N 7 11 N/A 10 16.0934 0 0
4:15 am 04:15 Cloudy 19 -7.3 16 -9 88 88 N 13 20 30.5 1033 10 16.0934 0 0
4:35 am 04:35 Mostly Cloudy 18 -7.7 13 -10.6 80 80 N 12 19 30.53 1034 10 16.0934 0 0
4:55 am 04:55 Cloudy 19 -7.5 11 -11.5 73 73 N 9 15 30.53 1034 10 16.0934 0 0
5:15 am 05:15 Cloudy 17 -8.5 10 -12.2 75 75 N 7 11 30.56 1035 10 16.0934 0 0
5:35 am 05:35 Cloudy 15 -9.2 9 -13 74 74 N 9 15 30.56 1035 10 16.0934 0 0
5:55 am 05:55 Mostly Cloudy 15 -9.3 9 -13 75 75 N 8 13 30.56 1035 10 16.0934 0 0
6:15 am 06:15 Cloudy 17 -8.5 10 -12.2 75 75 N 12 19 30.56 1035 10 16.0934 0 0
6:35 am 06:35 Cloudy 15 -9.4 8 -13.1 75 75 N 8 13 30.56 1035 10 16.0934 0 0
6:55 am 06:55 Cloudy 14 -10.2 8 -13.6 76 76 N 7 11 30.56 1035 10 16.0934 0 0
7:15 am 07:15 Cloudy 14 -10.1 8 -13.2 78 78 NW 3 6 30.56 1035 10 16.0934 0 0
7:35 am 07:35 Cloudy 14 -10 8 -13.1 78 78 Calm 30.56 1035 10 16.0934 0 0
7:55 am 07:55 Cloudy 14 -9.8 9 -13 78 78 Calm 30.59 1036 10 16.0934 0 0
8:15 am 08:15 Cloudy 15 -9.7 8 -13.2 76 76 Calm 30.59 1036 10 16.0934 0 0
8:35 am 08:35 Cloudy 14 -9.9 8 -13.5 75 75 Calm 30.59 1036 10 16.0934 0 0
8:55 am 08:55 Cloudy 14 -10.1 8 -13.4 77 77 N 5 7 30.59 1036 10 16.0934 0 0
9:15 am 09:15 Cloudy 16 -9.1 8 -13.1 73 73 N 6 9 30.59 1036 10 16.0934 0 0
9:35 am 09:35 Cloudy 16 -9.1 8 -13.2 72 72 Calm 30.59 1036 10 16.0934 0 0
9:55 am 09:55 Cloudy 16 -9.1 8 -13.5 71 71 ENE 3 6 30.59 1036 10 16.0934 0 0
10:15 am 10:15 Cloudy 16 -9 8 -13.5 70 70 Calm 30.59 1036 10 16.0934 0 0
10:35 am 10:35 Cloudy 16 -9 8 -13.6 70 70 Calm 30.59 1036 10 16.0934 0 0
10:55 am 10:55 Cloudy 17 -8.4 8 -13.5 67 67 Calm 30.59 1036 10 16.0934 0 0
11:15 am 11:15 Cloudy 17 -8.4 8 -13.6 66 66 Calm 30.59 1036 10 16.0934 0.01 0.254
11:35 am 11:35 Cloudy 18 -7.7 8 -13.4 64 64 S 3 6 30.59 1036 10 16.0934 0.01 0.254
11:55 am 11:55 Cloudy 18 -7.9 8 -13.6 64 64 SSE 3 6 30.59 1036 10 16.0934 0.01 0.254
12:15 pm 12:15 Cloudy 18 -7.7 8 -13.1 66 66 S 6 9 30.59 1036 10 16.0934 0 0
12:35 pm 12:35 Cloudy 20 -6.9 9 -12.7 64 64 S 7 11 30.56 1035 10 16.0934 0 0
12:55 pm 12:55 Partly Cloudy 20 -6.6 9 -12.6 63 63 S 7 11 30.53 1034 10 16.0934 0 0
1:15 pm 13:15 Sunny 20 -6.6 10 -12 66 66 S 9 15 30.5 1033 10 16.0934 0 0
1:35 pm 13:35 Sunny 22 -5.8 10 -12.2 61 61 S 10 17 30.5 1033 10 16.0934 0 0
1:55 pm 13:55 Sunny 22 -5.8 10 -12 62 62 S 10 17 30.5 1033 10 16.0934 0 0
2:15 pm 14:15 Sunny 22 -5.7 11 -11.9 62 62 S 10 17 30.48 1032 10 16.0934 0 0
2:35 pm 14:35 Sunny 22 -5.5 10 -12 61 61 S 13 20 30.45 1031 10 16.0934 0 0
2:55 pm 14:55 Sunny 22 -5.5 11 -11.7 62 62 S 15 24 30.42 1030 10 16.0934 0 0
3:15 pm 15:15 Mostly Cloudy 23 -5.2 12 -11.3 63 63 S 9 15 30.42 1030 10 16.0934 0 0
3:35 pm 15:35 Cloudy 22 -5.3 13 -10.8 66 66 S 10 17 30.42 1030 10 16.0934 0 0
3:55 pm 15:55 Cloudy 23 -5 13 -10.6 65 65 S 13 20 30.42 1030 10 16.0934 0 0
4:15 pm 16:15 Cloudy 24 -4.7 13 -10.4 65 65 SSW 12 19 30.42 1030 10 16.0934 0 0
4:35 pm 16:35 Cloudy 25 -4.1 14 -9.8 65 65 S 10 17 30.39 1029 10 16.0934 0 0
4:55 pm 16:55 Cloudy 25 -4 15 -9.5 66 66 SSW 10 17 30.39 1029 10 16.0934 0 0
5:15 pm 17:15 Cloudy 25 -3.8 16 -8.9 68 68 SSW 7 11 30.39 1029 10 16.0934 0 0
5:35 pm 17:35 Cloudy 26 -3.2 17 -8.1 69 69 SSW 8 13 30.36 1028 10 16.0934 0 0
5:55 pm 17:55 Partly Cloudy 26 -3.2 18 -7.7 71 71 SSW 10 17 30.36 1028 10 16.0934 0 0
6:15 pm 18:15 Mostly Cloudy 25 -3.7 18 -7.7 74 74 SSW 8 13 30.39 1029 10 16.0934 0 0
6:35 pm 18:35 Mostly Cloudy 25 -3.8 18 -7.6 75 75 SSW 7 11 30.39 1029 10 16.0934 0 0
6:55 pm 18:55 Partly Cloudy 24 -4.4 17 -8.1 76 76 SW 7 11 30.39 1029 10 16.0934 0 0
7:15 pm 19:15 Clear 25 -4.1 18 -7.7 76 76 SW 9 15 30.39 1029 10 16.0934 0 0
7:35 pm 19:35 Clear 25 -4.1 18 -7.6 77 77 SW 7 11 30.39 1029 10 16.0934 0 0
7:55 pm 19:55 Clear 24 -4.2 18 -7.6 77 77 SW 8 13 30.39 1029 10 16.0934 0 0
8:15 pm 20:15 Clear 25 -4 19 -7.4 77 77 SW 6 9 30.39 1029 10 16.0934 0 0
8:35 pm 20:35 Clear 24 -4.2 19 -7.5 78 78 SW 8 13 30.39 1029 10 16.0934 0 0
8:55 pm 20:55 Clear 23 -4.8 18 -7.6 81 81 WSW 7 11 30.39 1029 10 16.0934 0 0
9:15 pm 21:15 Clear 24 -4.4 19 -7.3 80 80 W 5 7 30.39 1029 10 16.0934 0 0
9:35 pm 21:35 Clear 24 -4.2 19 -7 81 81 WSW 7 11 30.39 1029 10 16.0934 0 0
9:55 pm 21:55 Clear 22 -5.8 17 -8.4 82 82 Calm 30.39 1029 10 16.0934 0 0
10:15 pm 22:15 Clear 23 -4.9 19 -7.2 84 84 W 7 11 30.42 1030 10 16.0934 0 0
10:35 pm 22:35 Partly Cloudy 21 -6.2 17 -8.5 84 84 W 6 9 30.42 1030 10 16.0934 0 0
10:55 pm 22:55 Mostly Cloudy 23 -5.1 19 -7.5 83 83 WSW 7 11 30.42 1030 10 16.0934 0 0
11:15 pm 23:15 Partly Cloudy 24 -4.4 20 -6.6 85 85 W 3 6 30.42 1030 10 16.0934 0 0
11:35 pm 23:35 Partly Cloudy 23 -5.1 19 -7.2 85 85 NW 3 6 30.42 1030 10 16.0934 0 0
11:55 pm 23:55 Clear 24 -4.5 20 -6.6 85 85 Calm 30.39 1029 10 16.0934 0 0

Powered by AerisWeather